Location: La Brionne
(46.1728°N, 1.7849°E)
Time: 05:35:04
(UTC+00:00)

Meteor 2-5 Rocket - Visible Passes

Search period start: 18 October 2021 00:00
Search period end: 28 October 2021 00:00
Orbit: 832 x 912 km, 81.2° (Epoch: 16 October)

Date Brightness Start Highest point End Pass type
(mag) Time Alt. Az. Time Alt. Az. Time Alt. Az.
18 Oct 6.5 18:12:55 10° NW 18:17:13 22° W 18:21:33 10° SW visible
19 Oct 4.3 05:44:12 10° S 05:49:37 63° E 05:55:08 10° NNE visible
19 Oct 6.6 18:07:28 10° NW 18:11:40 21° W 18:15:55 10° SW visible
20 Oct 4.2 05:38:39 10° S 05:44:06 66° E 05:49:38 10° NNE visible
20 Oct 6.7 18:02:02 10° NW 18:06:08 20° W 18:10:18 10° SW visible
21 Oct 4.1 05:33:06 10° S 05:38:35 69° E 05:44:08 10° NNE visible
21 Oct 6.7 17:56:35 10° NW 18:00:36 20° W 18:04:38 10° SW visible
22 Oct 4.0 05:27:34 10° S 05:33:03 72° E 05:38:38 10° NNE visible
22 Oct 6.7 17:51:10 10° NW 17:55:04 19° W 17:59:00 10° SW visible
23 Oct 7.1 03:44:52 10° E 03:45:14 10° E 03:45:35 10° ENE visible
23 Oct 4.0 05:22:02 10° S 05:27:32 75° E 05:33:08 10° NNE visible
23 Oct 6.7 17:45:44 10° NW 17:49:31 18° W 17:53:20 10° SW visible
24 Oct 7.0 03:38:30 10° E 03:39:41 11° E 03:40:51 10° ENE visible
24 Oct 3.9 05:16:30 10° S 05:22:00 78° E 05:27:37 10° NNE visible
24 Oct 6.7 17:40:19 10° NW 17:43:59 17° W 17:47:41 10° WSW visible
25 Oct 6.9 03:32:29 10° E 03:34:07 11° E 03:35:44 10° ENE visible
25 Oct 3.8 05:10:58 10° S 05:16:29 82° E 05:22:07 10° NNE visible
25 Oct 6.7 17:34:54 10° NW 17:38:27 17° W 17:42:01 10° WSW visible
26 Oct 6.8 03:26:36 10° E 03:28:34 12° E 03:30:31 10° ENE visible
26 Oct 3.8 05:05:26 10° S 05:10:58 85° E 05:16:37 10° NNE visible
26 Oct 6.8 17:29:30 10° NW 17:32:55 16° W 17:36:20 10° WSW visible
27 Oct 6.7 03:20:46 10° ESE 03:23:00 12° E 03:25:15 10° ENE visible
27 Oct 3.7 04:59:55 10° S 05:05:27 88° E 05:11:07 10° NNE visible
27 Oct 6.8 17:24:07 10° NW 17:27:22 15° W 17:30:38 10° WSW visible
